Goodman, MO (64843)

12:58 PM CDT on April 26, 2017 (GMT -0500)
MKEOS | | Change Station

Elev 1252 ft 36.81 °N, 94.39 °W | Updated 19 minutes ago

Mostly Cloudy
Mostly Cloudy
46.0 °F
Feels Like 42 °F
N
7.0
Wind Variable Wind from North

Today
High -- | Low -- °F
--% Chance of Precip.
Yesterday
High -- | Low -- °F
Precip. -- in
Pressure 29.61 in
Visibility 10.0 miles
Clouds Overcast 900 ft
Windchill 42 °F
Dew Point 46 °F
Humidity 100%
Rainfall 1.07 in
Snow Depth Not available.
6:29 AM 8:02 PM
New Moon, 0% visible
METAR KGMJ 261735Z AUTO 36008G16KT 10SM OVC009 08/08 A2961 RMK AO2 LTG DSNT SE P0021
Pressure 29.61 in
Visibility 10.0 miles
Clouds Overcast 900 ft
Windchill 42 °F
Dew Point 46 °F
Humidity 100%
Rainfall 1.07 in
Snow Depth Not available.
6:29 AM 8:02 PM
New Moon, 0% visible
METAR KGMJ 261735Z AUTO 36008G16KT 10SM OVC009 08/08 A2961 RMK AO2 LTG DSNT SE P0021

Get Severe Weather Alerts

Thanks for signing up!

Be on the lookout for a verification email in your inbox.

You'll start receiving the daily forecast at 8 AM.

×

10-Day Weather Forecast

Almanac

Astronomy

Apr. 26, 2017 Rise Set
Actual Time
Civil Twilight
Nautical Twilight
Astronomical Twilight
Moon
Length of Visible Light
Length of Day
Tomorrow will be .
, % of the Moon is Illuminated

Today's Extremes

State Highs State Lows

Community

WunderPhotos

WunderBlog® & News

Nearby

Air Quality

  Air Quality AQ Index Pollutant
Not available.

Snow Depth

Station Depth Elevation

Earthquake Activity

City Distance Mag. Time & Date
Minimum magnitude displayed is 2.5.

Coastal Water Temperatures

Place Temperature

Stations

Nearby Weather Stations

Station Location Temp. Windchill Dew Point Humidity Wind Precip. Elev Updated Type
                   

Watches & Warnings

There are currently no watches in effect.